Probability
97 94 94 90 90 97 100 100 100 100 100 100 97 90 74 35 13 3 3 0 0 0 0 0 0 0 0 0 0 0 0 0 0 0 0 0 0 0 0 0 0 0 0
94 90 87 87 87 97 100 100 100 100 100 100 100 94 65 23 0 0 0 0 0 0 0 0 0 0 0 0 0 0 0 0 0 0 0 0 0 0 0 0 0 0 0
94 94 94 90 90 100 100 100 100 100 100 100 81 45 10 0 0 0 0 0 0 0 0 0 0 0 0 0 0 0 0 0 0 0 0 0 0 0 0 0 0 0 0
71 97 97 94 94 94 100 100 100 100 100 94 52 26 6 0 0 0 0 0 0 0 0 0 0 0 0 0 0 0 0 0 0 0 0 0 0 0 0 0 0 0 0
45 97 100 94 97 97 100 100 97 97 97 87 77 58 10 0 0 0 0 0 0 0 0 0 0 0 0 0 0 0 0 0 0 0 0 0 0 0 0 0 0 0 0
77 100 100 94 84 90 90 87 71 71 65 45 16 10 0 0 0 0 0 0 0 0 0 0 0 0 0 0 0 0 0 0 0 0 0 0 0 0 0 0 0 0 0
97 100 97 74 55 61 58 39 19 6 0 0 0 0 0 0 0 0 0 0 0 0 0 0 0 0 0 0 0 0 0 0 0 0 0 0 0 0 0 0 0 0 0
97 87 65 42 32 35 26 10 0 0 0 0 0 0 0 0 0 0 0 0 0 0 0 0 0 0 0 0 0 0 0 0 0 0 0 0 0 0 0 0 0 0 0
39 16 13 10 6 0 0 0 0 0 0 0 0 0 0 0 0 0 0 0 0 0 0 0 0 0 0 0 0 0 0 0 0 0 0 0 0 0 0 0 0 0 0
6 3 0 0 0 0 0 0 0 0 0 0 0 0 0 0 0 0 0 0 0 0 0 0 0 0 0 0 0 0 0 0 0 0 0 0 0 0 0 0 0 0 0
0 0 0 0 0 0 0 0 0 0 0 0 0 0 0 0 0 0 0 0 0 0 0 0 0 0 0 0 0 0 0 0 0 0 0 0 0 0 0 0 0 0 0
0 0 0 0 0 0 0 0 0 0 0 0 0 0 0 0 0 0 0 0 0 0 0 0 0 0 0 0 0 0 0 0 0 0 0 0 0 0 0 0 0 0 0
0 0 0 0 0 0 0 0 0 0 0 0 0 0 0 0 0 0 0 0 0 0 0 0 0 0 0 0 0 0 0 0 0 0 0 0 0 0 0 0 0 0 0
0 0 0 0 0 0 0 0 0 0 0 0 0 0 0 0 0 0 0 0 0 0 0 0 0 0 0 0 0 0 0 0 0 0 0 0 0 0 0 0 0 0 0
0 0 0 0 0 0 0 0 0 0 0 0 0 0 0 0 0 0 0 0 0 0 0 0 0 0 0 0 0 0 0 0 0 0 0 0 0 0 0 0 0 0 0
0 0 0 0 0 0 0 0 0 0 0 0 0 0 0 0 0 0 0 0 0 0 0 0 0 0 0 0 0 0 0 0 0 0 0 0 0 0 0 0 0 0 0
0 0 0 0 0 0 0 0 0 0 0 0 0 0 0 0 0 0 0 0 0 0 0 0 0 0 0 0 0 0 0 0 0 0 0 0 0 0 0 0 0 0 0
0 0 0 0 0 0 0 0 0 0 0 0 0 0 0 0 0 0 0 0 0 0 0 0 0 0 0 0 0 0 0 0 0 0 0 0 0 0 0 0 0 0 0
0 0 0 0 0 0 0 0 0 0 0 0 0 0 0 0 0 0 0 0 0 0 0 0 0 0 0 0 0 0 0 0 0 0 0 0 0 0 0 0 0 0 0
0 0 0 0 0 0 0 0 0 0 0 0 0 0 0 0 0 0 0 0 0 0 0 0 0 0 0 0 0 0 0 0 0 0 0 0 0 0 0 0 0 0 0
0 0 0 0 0 0 0 0 0 0 0 0 0 0 0 0 0 0 0 0 0 0 0 0 0 0 0 0 0 0 0 0 0 0 0 0 0 0 0 0 0 0 0
0 0 0 0 0 0 0 0 0 0 0 0 0 0 0 0 0 0 0 0 0 0 0 0 0 0 0 0 0 0 0 0 0 0 0 0 0 0 0 0 0 0 0
0 0 0 0 0 0 0 0 0 0 0 0 0 0 0 0 0 0 0 0 0 0 0 0 0 0 0 0 0 0 0 0 0 0 0 0 0 0 0 0 0 0 0
0 0 0 0 0 0 0 0 0 0 0 0 0 0 0 0 0 0 0 0 0 0 0 0 0 0 0 0 0 0 0 0 0 0 0 0 0 0 0 0 0 0 0
0 0 0 0 0 0 0 0 0 0 0 0 0 0 0 0 0 0 0 0 0 0 0 0 0 0 0 0 0 0 0 0 0 0 0 0 0 0 0 0 0 0 0
0 0 0 0 0 0 0 0 0 0 0 0 0 0 0 0 0 0 0 0 0 0 0 0 0 0 0 0 0 0 0 0 0 0 0 0 0 0 0 0 0 0 0
Height
5860 5854 5854 5857 5857 5856 5856 5856 5855 5854 5853 5852 5851 5849 5848 5846 5845 5842 5840 5838 5835 5832 5829 5827 5823 5820 5816 5813 5812 5809 5805 5802 5798 5795 5792 5789 5785 5780 5777 5773 5769 5766 5762
5853 5848 5849 5851 5851 5850 5850 5850 5849 5848 5846 5846 5845 5843 5842 5840 5839 5837 5834 5832 5829 5826 5822 5818 5815 5812 5807 5804 5802 5798 5794 5789 5785 5781 5778 5776 5773 5767 5762 5757 5753 5750 5747
5845 5841 5841 5844 5843 5842 5842 5843 5843 5841 5839 5839 5837 5836 5834 5833 5832 5830 5827 5824 5821 5817 5814 5810 5806 5801 5796 5793 5788 5785 5780 5776 5771 5767 5764 5761 5757 5754 5749 5742 5737 5733 5730
5840 5833 5832 5834 5833 5833 5835 5836 5835 5833 5831 5830 5830 5828 5826 5824 5823 5820 5818 5815 5812 5808 5805 5800 5796 5790 5785 5781 5775 5771 5766 5763 5758 5753 5749 5746 5742 5738 5735 5729 5723 5719 5714
5831 5826 5825 5826 5825 5824 5827 5829 5828 5826 5823 5822 5821 5819 5817 5815 5812 5809 5807 5804 5801 5798 5794 5789 5784 5779 5775 5770 5765 5760 5754 5750 5745 5740 5735 5730 5725 5721 5717 5713 5708 5703 5698
5820 5819 5819 5818 5817 5817 5818 5820 5819 5818 5816 5814 5812 5810 5807 5804 5802 5799 5796 5792 5789 5787 5784 5778 5773 5767 5763 5758 5753 5748 5742 5738 5732 5726 5720 5715 5709 5703 5699 5695 5691 5686 5681
5811 5812 5812 5811 5809 5809 5810 5811 5810 5809 5807 5806 5803 5801 5798 5795 5793 5789 5785 5780 5776 5774 5771 5765 5760 5755 5751 5746 5741 5735 5729 5724 5719 5712 5706 5700 5693 5687 5682 5677 5673 5669 5665
5806 5806 5804 5803 5803 5802 5801 5801 5801 5801 5799 5797 5794 5791 5788 5786 5783 5777 5774 5770 5765 5760 5756 5752 5748 5743 5738 5732 5727 5721 5716 5710 5704 5698 5691 5686 5679 5672 5666 5660 5654 5651 5648
5799 5798 5797 5796 5796 5796 5795 5794 5793 5791 5789 5786 5784 5780 5777 5774 5772 5767 5763 5760 5754 5748 5744 5739 5735 5729 5724 5718 5713 5707 5701 5696 5690 5683 5677 5670 5664 5657 5650 5644 5637 5632 5629
5792 5791 5790 5790 5790 5789 5788 5787 5785 5783 5780 5777 5774 5771 5767 5764 5761 5757 5753 5747 5742 5736 5730 5725 5720 5715 5710 5704 5699 5694 5688 5682 5676 5668 5661 5654 5647 5641 5633 5626 5620 5614 5609
5785 5784 5784 5784 5783 5782 5780 5779 5777 5774 5771 5768 5765 5762 5758 5754 5750 5746 5742 5736 5729 5724 5718 5712 5707 5702 5697 5692 5686 5681 5675 5668 5661 5653 5646 5639 5631 5624 5617 5609 5602 5595 5589
5778 5778 5778 5777 5775 5773 5771 5769 5767 5765 5762 5758 5754 5751 5747 5743 5739 5734 5729 5723 5718 5712 5706 5701 5695 5690 5685 5679 5673 5667 5661 5654 5646 5639 5631 5624 5616 5608 5600 5593 5585 5578 5571
5771 5772 5771 5769 5767 5765 5763 5760 5757 5755 5751 5748 5744 5740 5736 5732 5727 5722 5717 5711 5705 5699 5694 5689 5684 5678 5672 5666 5659 5653 5647 5639 5632 5624 5616 5608 5601 5593 5585 5577 5569 5562 5555
5764 5765 5763 5760 5757 5756 5754 5751 5748 5745 5741 5737 5733 5729 5724 5720 5714 5709 5704 5698 5692 5687 5681 5676 5671 5665 5659 5652 5645 5639 5632 5625 5617 5609 5601 5592 5584 5576 5568 5561 5554 5548 5543
5756 5755 5753 5750 5748 5746 5744 5741 5737 5733 5729 5725 5721 5717 5712 5707 5702 5697 5692 5686 5680 5674 5669 5664 5658 5652 5646 5639 5632 5625 5618 5610 5602 5593 5585 5576 5568 5560 5553 5548 5543 5537 5532
5746 5746 5744 5742 5739 5736 5734 5730 5726 5722 5718 5713 5709 5704 5700 5694 5689 5683 5679 5673 5668 5662 5656 5651 5645 5639 5632 5625 5618 5611 5603 5595 5587 5579 5571 5562 5555 5548 5543 5537 5532 5527 5522
5737 5736 5734 5732 5730 5727 5724 5720 5715 5711 5707 5702 5697 5693 5688 5683 5676 5671 5666 5661 5655 5649 5644 5639 5632 5626 5620 5612 5604 5596 5589 5581 5573 5565 5558 5550 5544 5538 5534 5529 5524 5519 5515
5726 5725 5723 5721 5719 5716 5712 5708 5704 5700 5696 5691 5686 5682 5677 5672 5665 5659 5654 5648 5642 5637 5632 5627 5620 5613 5606 5599 5591 5584 5575 5567 5560 5553 5546 5540 5535 5529 5525 5521 5517 5514 5511
5714 5712 5710 5708 5705 5702 5699 5696 5692 5689 5685 5680 5676 5671 5665 5659 5653 5647 5642 5636 5631 5626 5620 5614 5607 5600 5593 5587 5579 5571 5563 5556 5550 5543 5537 5532 5526 5521 5517 5513 5511 5510 5509
5703 5701 5698 5696 5693 5690 5687 5684 5681 5678 5674 5670 5665 5659 5652 5647 5642 5636 5631 5626 5620 5614 5608 5602 5595 5589 5581 5575 5567 5559 5553 5547 5542 5536 5531 5526 5521 5516 5511 5509 5508 5508 5508
5691 5689 5686 5684 5682 5679 5677 5674 5671 5667 5663 5659 5654 5648 5642 5636 5632 5626 5621 5615 5609 5604 5598 5592 5585 5578 5571 5564 5558 5551 5545 5540 5536 5532 5528 5523 5518 5513 5510 5508 5508 5509 5509
5681 5678 5676 5674 5672 5670 5667 5664 5661 5658 5654 5649 5644 5638 5632 5627 5622 5617 5611 5605 5600 5594 5588 5582 5576 5569 5562 5556 5549 5544 5539 5536 5532 5529 5525 5521 5517 5514 5512 5511 5511 5512 5512
5673 5671 5669 5667 5664 5662 5659 5657 5653 5649 5644 5639 5634 5629 5623 5618 5613 5608 5602 5597 5591 5584 5578 5573 5567 5562 5556 5549 5544 5540 5537 5534 5531 5527 5524 5521 5519 5517 5516 5515 5515 5515 5515
5667 5665 5663 5660 5658 5656 5652 5649 5644 5640 5635 5630 5626 5622 5616 5610 5605 5599 5593 5587 5581 5575 5570 5566 5562 5556 5551 5545 5541 5538 5536 5533 5530 5528 5526 5523 5521 5520 5520 5520 5519 5519 5519
5662 5660 5658 5655 5653 5649 5645 5641 5637 5633 5628 5623 5618 5613 5608 5602 5596 5590 5584 5578 5573 5569 5566 5561 5557 5552 5547 5543 5540 5537 5536 5533 5531 5530 5528 5526 5525 5525 5524 5524 5523 5522 5521
5657 5656 5653 5651 5647 5644 5640 5636 5632 5627 5622 5617 5611 5605 5599 5593 5587 5582 5577 5572 5569 5565 5561 5556 5552 5547 5544 5541 5538 5537 5535 5534 5532 5531 5530 5529 5529 5529 5528 5527 5526 5525 5524
Wind_Speed
40 42 37 32 30 28 28 29 31 32 34 33 32 32 32 32 32 33 34 34 35 35 36 37 39 41 43 44 44 46 48 50 52 53 54 54 57 60 62 63 66 68 68
43 43 38 33 31 30 30 31 33 36 38 39 39 39 37 36 36 38 38 39 39 38 37 39 41 43 47 49 51 53 55 57 58 59 59 60 60 61 62 64 66 68 69
45 46 42 35 33 33 34 33 35 39 41 42 44 44 43 41 40 41 42 43 43 42 42 43 45 48 50 51 54 55 58 58 59 60 61 61 60 61 65 68 69 69 68
39 46 42 36 35 35 35 35 38 40 43 45 46 47 47 46 45 46 46 46 45 45 45 46 48 51 52 53 55 54 55 55 56 57 58 60 63 66 67 67 66 65 66
35 43 41 36 35 34 33 36 41 44 46 47 47 48 49 49 49 48 46 46 47 49 49 49 50 51 52 53 54 54 55 56 58 59 62 64 66 66 66 64 64 66 67
34 35 33 33 33 33 34 37 42 45 47 47 47 48 49 49 48 47 47 49 51 51 50 51 51 52 53 53 54 55 55 57 60 63 66 66 65 64 64 65 68 69 69
35 32 31 32 34 34 36 39 42 44 44 46 48 48 48 49 49 50 50 53 55 54 55 54 52 52 52 54 57 59 58 59 62 64 65 64 63 65 67 68 70 70 69
33 33 32 31 31 33 36 38 40 42 44 46 47 47 48 49 49 51 52 53 55 55 55 53 51 52 55 56 58 60 61 63 64 64 63 63 65 67 68 69 70 69 66
27 27 27 26 27 30 32 34 37 39 40 41 42 44 46 47 48 50 51 51 52 53 52 52 53 54 56 58 60 62 64 65 64 63 64 66 68 70 71 71 70 68 65
21 24 25 26 27 30 31 33 34 35 35 36 38 41 43 45 48 48 48 50 52 54 55 54 54 56 58 60 62 62 63 62 62 63 65 67 69 70 69 69 68 68 66
21 24 27 29 32 34 35 35 34 34 36 37 38 40 43 44 45 47 50 53 55 56 55 54 55 56 58 59 59 59 60 61 62 64 65 66 68 68 68 67 66 66 66
24 24 28 31 34 36 37 37 36 38 39 40 42 43 44 44 47 50 53 55 55 55 54 53 53 55 56 57 57 58 60 61 62 63 64 65 66 65 65 64 65 64 63
21 24 29 33 36 38 38 38 37 38 39 41 42 43 45 48 50 52 53 53 53 54 55 54 54 55 56 55 56 57 59 61 62 63 63 62 62 62 63 62 59 55 52
22 28 33 37 40 40 39 38 39 42 44 46 47 47 48 51 53 51 51 51 52 55 56 56 55 55 54 54 56 58 60 61 61 61 61 61 61 61 59 53 48 45 44
25 30 34 39 41 40 39 41 45 48 51 51 50 48 50 55 53 51 49 49 51 53 55 56 55 54 54 55 58 59 60 60 60 61 61 60 58 55 49 44 42 41 41
31 33 36 39 41 43 45 47 51 53 53 52 50 49 54 58 55 50 48 51 53 54 55 54 53 53 54 56 58 59 58 59 60 60 58 54 50 45 42 40 38 37 35
40 41 43 45 47 49 51 53 55 54 52 51 50 51 56 60 56 51 50 52 53 53 52 51 52 53 54 56 57 57 58 59 58 55 51 47 42 39 38 35 33 32 28
47 48 50 51 52 54 54 54 52 50 49 50 50 54 58 58 54 49 49 49 48 48 49 51 53 55 55 55 56 57 56 54 50 47 43 40 37 36 33 29 26 24 16
50 50 50 50 50 50 49 48 47 47 48 49 52 57 56 54 51 47 46 44 45 47 50 52 53 54 55 54 53 51 49 45 42 39 36 35 34 32 27 22 18 13 8
50 50 48 47 45 45 45 45 45 46 46 48 53 56 54 51 46 43 42 43 46 48 50 51 53 53 52 50 46 43 40 36 33 31 31 31 30 25 19 12 8 4 1
45 44 43 42 42 42 41 42 42 43 44 47 51 52 52 49 43 40 42 44 47 48 50 51 50 47 43 40 37 35 31 27 25 25 25 24 20 14 7 2 3 5 6
38 37 36 35 34 35 35 37 38 41 44 47 48 47 45 43 43 43 45 46 48 49 49 46 41 36 34 32 30 26 21 20 20 20 18 14 11 6 6 8 10 9 8
30 29 28 28 29 30 32 34 37 40 43 43 42 40 39 40 42 44 45 46 47 45 40 33 28 28 29 27 22 18 16 17 17 15 11 9 7 8 11 12 12 11 9
25 25 25 25 26 28 32 35 37 37 37 37 37 37 38 40 42 43 44 43 39 32 25 22 24 27 26 21 16 13 13 13 13 11 9 9 10 12 13 13 11 9 7
21 20 21 23 26 29 30 31 30 31 32 34 37 38 39 39 39 39 37 32 24 19 20 23 25 25 23 17 12 10 10 10 9 6 7 11 13 14 13 11 8 6 5
18 19 20 22 23 23 23 25 27 30 33 35 36 37 36 36 34 30 24 19 19 21 23 23 23 21 18 14 9 8 8 7 4 5 8 10 11 10 10 8 7 6 6
Wind_Direction
280 284 288 292 292 285 277 275 279 286 290 290 290 291 294 296 298 301 302 300 297 298 300 300 299 298 296 296 296 296 295 292 289 288 287 288 288 287 287 287 288 288 288
274 280 285 288 285 278 272 273 278 282 285 286 286 285 287 289 290 292 295 296 294 292 293 294 296 296 294 293 293 292 291 289 286 285 284 285 286 286 287 287 289 288 288
270 276 282 282 278 271 269 272 278 280 281 283 283 283 284 285 285 286 288 292 292 289 289 291 294 294 292 290 289 289 289 289 288 285 284 284 283 284 286 288 289 290 290
264 269 275 277 272 267 264 268 274 277 278 279 280 280 281 284 285 285 285 289 291 288 287 288 293 294 293 292 292 291 290 289 288 287 285 284 284 285 286 288 290 290 291
263 261 267 270 269 266 262 264 270 274 276 277 276 276 278 281 284 287 288 289 290 289 288 288 291 293 293 293 293 292 289 288 288 287 286 287 287 288 288 288 290 292 293
268 265 268 267 266 266 266 266 270 273 274 274 275 278 279 282 286 290 290 289 290 291 289 288 289 289 290 291 293 292 289 288 287 287 288 289 290 291 291 292 293 294 295
270 272 270 265 265 267 268 269 271 274 274 274 276 278 281 284 286 287 287 289 291 292 291 291 291 291 292 293 294 293 291 290 289 289 291 291 291 293 294 296 296 296 296
266 266 264 262 265 269 272 275 277 278 277 277 278 279 281 282 284 285 287 290 294 296 296 295 294 295 296 295 294 294 292 291 291 292 292 292 293 295 297 297 297 296 295
260 257 256 260 265 270 274 278 280 280 280 280 279 279 280 282 284 286 289 294 298 301 303 303 300 297 295 293 292 290 291 293 294 295 295 295 296 297 297 297 296 295 294
263 258 257 262 267 270 275 280 283 282 282 281 281 282 284 286 287 289 296 301 304 304 303 301 298 295 295 294 293 292 293 295 296 297 298 298 298 297 296 295 295 295 294
266 260 259 264 268 272 278 284 284 283 282 282 284 286 287 288 292 297 302 303 302 300 298 296 296 296 297 296 296 295 296 297 299 300 300 299 299 298 298 298 297 296 295
268 263 263 266 270 275 280 284 285 284 286 286 285 285 288 291 297 300 301 300 297 295 293 294 296 298 298 297 296 297 298 300 301 301 300 300 300 299 299 299 298 297 296
267 274 272 272 273 277 280 283 287 292 297 299 297 293 295 299 299 297 297 298 298 295 292 293 296 298 298 297 297 299 300 301 301 301 301 301 301 301 301 300 299 298 296
271 278 277 277 277 278 280 286 295 300 302 302 302 299 299 302 298 293 295 299 301 297 292 292 296 297 298 298 299 300 301 301 302 303 303 303 303 303 303 302 300 299 298
283 278 279 281 282 284 291 297 300 301 301 300 300 297 298 302 296 291 296 301 302 299 297 297 298 298 299 300 300 300 301 303 305 306 305 304 304 304 305 304 302 301 301
288 282 281 283 287 292 295 297 298 298 298 297 297 296 296 297 292 290 296 300 300 300 300 299 298 298 300 300 301 303 306 307 307 306 305 304 305 306 306 306 305 303 303
283 284 285 286 288 290 292 293 294 295 295 295 295 295 296 292 287 289 295 298 299 299 298 297 298 300 302 304 306 308 309 308 306 305 304 306 307 306 305 305 304 302 302
285 286 286 286 286 287 288 289 290 290 291 292 291 293 293 290 288 294 299 300 299 300 300 301 303 305 306 307 309 309 308 306 305 305 307 309 308 307 307 304 299 298 296
285 284 284 284 284 284 284 286 287 288 290 291 290 290 291 294 298 301 302 301 301 301 303 305 306 307 308 310 309 308 306 305 305 307 310 312 313 313 310 303 296 290 288
282 283 282 282 281 281 282 284 285 287 288 288 289 291 298 305 307 306 304 303 304 306 308 308 309 310 310 310 308 307 306 307 309 312 315 317 318 318 314 305 291 278 284
283 282 281 280 280 281 282 283 284 286 287 289 292 296 302 307 309 307 306 306 308 309 309 309 310 310 309 309 309 309 310 312 314 317 318 320 324 329 335 14 111 115 102
284 283 282 282 282 283 284 284 286 287 289 293 297 301 305 307 307 307 308 308 308 309 309 310 310 311 312 315 316 317 319 322 322 323 326 332 343 16 77 100 105 101 92
286 285 285 285 285 287 288 288 289 291 294 298 302 305 306 306 307 307 307 307 308 309 310 312 314 319 322 324 325 327 330 329 329 335 344 356 21 71 91 95 94 88 78
288 288 288 288 288 288 288 289 292 296 301 303 304 306 306 306 306 306 307 310 311 313 315 319 323 327 329 330 332 334 336 335 341 354 11 37 63 85 94 92 86 77 58
288 289 288 289 290 291 293 296 300 303 305 306 307 307 306 306 307 311 314 315 317 321 323 324 325 329 332 334 334 337 341 343 350 18 58 78 84 88 87 82 73 58 38
286 287 290 294 298 301 305 308 309 309 308 307 307 307 309 312 315 318 320 321 322 322 323 324 327 331 333 333 333 338 345 351 23 69 86 90 89 84 78 70 63 55 48